This demonstration page uses our WeatherBlox Daily Observations layout. Learn more.

Left ArrowRight Arrow

44.89941, -97.11507

Hourly Observations for July 5, 2020

Temp ( °F °C ) Dew Point ( °F °C ) Humidity (%) Winds ( mph kmh ) Pressure ( in mb ) Visibility ( mi km ) Precip ( " mm )
12:53 am 00:53 Clear 75 23.9 68 20 79 79 SSW 9 15 29.96 1015 10 16 0.00 0.00
1:53 am 01:53 Clear 76 24.4 66 18.9 72 72 SSW 14 22 29.97 1015 10 16 0.00 0.00
2:53 am 02:53 Clear 77 25 64 17.8 64 64 SSW 17 28 29.93 1014 10 16 0.00 0.00
3:53 am 03:53 Clear 76 24.4 63 17.2 64 64 S 15 24 29.89 1012 10 16 0.00 0.00
4:53 am 04:53 Clear 75 23.9 63 17.2 66 66 SSE 16 26 29.88 1012 10 16 0.00 0.00
5:53 am 05:53 Sunny 73 22.8 65 18.3 76 76 S 6 9 29.93 1013 10 16 0.00 0.00
6:53 am 06:53 Sunny 73 22.8 65 18.3 76 76 NW 6 9 29.99 1016 10 16 0.00 0.00
7:53 am 07:53 Sunny 73 22.8 67 19.4 81 81 NE 5 7 29.98 1015 10 16 0.00 0.00
8:53 am 08:53 Sunny 77 25 65 18.3 66 66 Calm 29.96 1015 10 16 0.00 0.00
9:53 am 09:53 Sunny 80 26.7 67 19.4 64 64 SSW 10 17 29.97 1015 10 16 0.00 0.00
10:53 am 10:53 Sunny 82 27.8 69 20.6 65 65 SSW 12 19 29.96 1015 10 16 0.00 0.00
11:53 am 11:53 Sunny 83 28.3 68 20 61 61 S 8 13 29.95 1014 10 16 0.00 0.00
12:53 pm 12:53 Sunny 84 28.9 68 20 59 59 S 13 20 29.93 1014 10 16 0.00 0.00
1:53 pm 13:53 Mostly Cloudy with Light Rain 80 26.7 68 20 67 67 S 9 15 29.94 1014 10 16 0.00 0.00
2:08 pm 14:08 Partly Cloudy with Nearby Thunderstorms 81 27.2 67 19.4 62 62 SW 5 7 29.90 1013 10 16 0.00 0.00
2:29 pm 14:29 Mostly Cloudy with Thunderstorms 80 26.7 67 19.4 64 64 W 6 9 29.91 1013 10 16 0.00 0.00
2:53 pm 14:53 Cloudy with Thunderstorms 71 21.7 63 17.2 76 76 WNW 16 26 30.01 1016 7 11 0.03 0.76
3:01 pm 15:01 Cloudy with Strong Thunderstorms 71 21.7 62 16.7 73 73 WSW 15 24 29.97 1015 2 3 0.09 2.29
3:08 pm 15:08 Cloudy with Rain 72 22.2 60 15.6 66 66 SW 10 17 29.95 1014 2 3 0.12 3.05
3:12 pm 15:12 Cloudy with Nearby Thunderstorms 71 21.7 64 17.8 79 79 SSE 8 13 29.93 1014 3 4 0.14 3.56
3:19 pm 15:19 Cloudy with Nearby Thunderstorms 73 22.8 63 17.2 71 71 SSE 18 30 29.90 1012 4 6 0.14 3.56
3:28 pm 15:28 Mostly Cloudy with Light Rain 73 22.8 61 16.1 66 66 SSE 20 31 29.87 1011 10 16 0.14 3.56
3:53 pm 15:53 Partly Cloudy with Light Rain 73 22.8 64 17.8 74 74 SSE 20 31 29.88 1012 10 16 0.15 3.81
4:23 pm 16:23 Partly Cloudy with Nearby Thunderstorms 74 23.3 61 16.1 64 64 SSE 15 24 29.84 1011 10 16 0.00 0.00
4:38 pm 16:38 Mostly Cloudy 74 23.3 63 17.2 69 69 WNW 10 17 29.87 1012 10 16 0.00 0.00
4:53 pm 16:53 Mostly Cloudy 76 24.4 62 16.7 62 62 WNW 8 13 29.93 1014 10 16 0.00 0.00
5:53 pm 17:53 Sunny 75 23.9 64 17.8 69 69 SW 8 13 29.91 1013 10 16 0.00 0.00
6:53 pm 18:53 Sunny 74 23.3 65 18.3 74 74 W 3 6 29.91 1013 10 16 0.00 0.00
7:53 pm 19:53 Sunny 74 23.3 68 20 82 82 SSW 5 7 29.90 1013 10 16 0.00 0.00
8:53 pm 20:53 Mostly Sunny 76 24.4 67 19.4 74 74 E 8 13 29.87 1012 10 16 0.00 0.00
9:53 pm 21:53 Clear 70 21.1 68 20 93 93 E 3 6 29.94 1014 10 16 0.00 0.00
10:53 pm 22:53 Clear 73 22.8 68 20 84 84 E 6 9 29.92 1013 10 16 0.00 0.00
11:53 pm 23:53 Mostly Cloudy 69 20.6 61 16.1 76 76 NNE 17 28 29.96 1014 10 16 0.00 0.00

Powered by AerisWeather